Winner, SD

4:45 AM CDT on March 27, 2017 (GMT -0500)
Winner

Weather History for KICR - April, 2014

Change the Weather History Date:

Saturday, April 19, 2014

  Actual Average Record
Temperature  
Mean Temperature 57 °F 49 °F  
Max Temperature 70 °F 61 °F 70 °F (2014)
Min Temperature 44 °F 37 °F 22 °F (2013)
Degree Days  
Heating Degree Days 8 16  
Month to date heating degree days 369 365  
Since 1 July heating degree days 6652 6250  
Cooling Degree Days 0 0  
Month to date cooling degree days 2 0  
Year to date cooling degree days 2 0  
Growing Degree Days 9 (Base 50)    
Moisture  
Dew Point 28 °F    
Average Humidity 43    
Maximum Humidity 71    
Minimum Humidity 15    
Precipitation  
Precipitation 0.00 in 0.09 in 0.06 in (2011)
Month to date precipitation 0.14 1.37  
Year to date precipitation 0.26 3.51  
Sea Level Pressure  
Sea Level Pressure 29.95 in    
Wind  
Wind Speed 10 mph (NW)    
Max Wind Speed 32 mph    
Max Gust Speed 42 mph    
Visibility 10 miles    
Events      
T = Trace of Precipitation, MM = Missing Value Source: NWS Daily Summary

Daily Weather History Graph

Daily Weather History Graph

Search for Another Location

Airport or City:

Trip Planner

Search our weather history database for the weather conditions in past years. The results will help you decide how hot, cold, wet, or windy it might be!

Date:

Astronomy

Apr. 19, 2014 Rise Set
Actual Time 6:50 AM CDT 8:27 PM CDT
Civil Twilight 6:20 AM CDT 8:57 PM CDT
Nautical Twilight 5:43 AM CDT 9:34 PM CDT
Astronomical Twilight 5:04 AM CDT 10:13 PM CDT
Moon 12:17 AM CDT (4/19) 10:06 AM CDT (4/19)
Length of Visible Light 14h 37m
Length of Day
13h 36m
Waning Gibbous, 78% of the Moon is Illuminated
Apr 19
Waning Gibbous
Apr 22
Last Quarter
Apr 29
New
May 6
First Quarter
May 14
Full

Hourly Weather History & Observations

Time (CDT) Temp. Dew Point Humidity Pressure Visibility Wind Dir Wind Speed Gust Speed Precip Events Conditions
12:53 AM 66.0 °F 42.1 °F 42% 29.69 in 10.0 mi South 27.6 mph 39.1 mph N/A   Clear
1:53 AM 66.0 °F 43.0 °F 43% 29.73 in 10.0 mi SW 18.4 mph 34.5 mph N/A   Clear
2:53 AM 64.9 °F 43.0 °F 45% 29.70 in 10.0 mi SSW 31.1 mph 40.3 mph N/A   Clear
4:00 AM 60.1 °F 41.0 °F 49% 29.85 in 10.0 mi WNW 19.6 mph - N/A   Clear
4:53 AM 55.9 °F 39.9 °F 55% 29.87 in 10.0 mi NNW 18.4 mph 26.5 mph N/A   Clear
5:53 AM 48.9 °F 37.9 °F 66% 29.91 in 10.0 mi NW 9.2 mph - N/A   Clear
7:53 AM 48.0 °F 37.9 °F 68% 29.97 in 10.0 mi West 5.8 mph - N/A   Clear
8:53 AM 51.1 °F 37.0 °F 59% 29.99 in 10.0 mi WNW 10.4 mph - N/A   Partly Cloudy
9:53 AM 55.0 °F 33.1 °F 43% 30.00 in 10.0 mi NNW 16.1 mph - N/A   Clear
10:53 AM 57.9 °F 30.0 °F 35% 30.02 in 10.0 mi NNW 11.5 mph - N/A   Clear
11:53 AM 60.1 °F 27.0 °F 28% 30.02 in 10.0 mi North 11.5 mph - N/A   Clear
12:53 PM 62.1 °F 25.0 °F 24% 30.03 in 10.0 mi North 8.1 mph - N/A   Clear
1:53 PM 64.9 °F 18.0 °F 16% 30.00 in 10.0 mi North 8.1 mph - N/A   Clear
2:53 PM 66.9 °F 19.9 °F 17% 30.01 in 10.0 mi ENE 8.1 mph - N/A   Clear
3:53 PM 66.9 °F 19.9 °F 17% 30.01 in 10.0 mi Calm Calm - N/A   Clear
4:53 PM 69.1 °F 19.9 °F 15% 29.99 in 10.0 mi NNW 5.8 mph - N/A   Clear
5:53 PM 70.0 °F 21.9 °F 16% 30.00 in 10.0 mi East 5.8 mph - N/A   Clear
6:53 PM 69.1 °F 21.0 °F 16% 30.00 in 10.0 mi Calm Calm - N/A   Clear
7:53 PM 66.0 °F 21.0 °F 18% 30.00 in 10.0 mi Calm Calm - N/A   Clear
8:53 PM 59.0 °F 21.9 °F 24% 30.01 in 10.0 mi SE 6.9 mph - N/A   Clear
9:53 PM 52.0 °F 19.9 °F 28% 30.03 in 10.0 mi SSE 8.1 mph - N/A   Clear
10:53 PM 51.1 °F 18.0 °F 27% 30.03 in 10.0 mi South 8.1 mph - N/A   Clear
11:53 PM 50.0 °F 17.1 °F 27% 30.02 in 10.0 mi South 6.9 mph - N/A   Clear